Washington, PA

12:17 PM EST on December 05, 2019 (GMT -0500)
Washington County

Weather History for KAFJ - October, 2019

Change the Weather History Date:

Friday, October 11, 2019

  Actual Average Record
Temperature  
Mean Temperature 60 °F -  
Max Temperature 75 °F 62 °F 78 °F (2017)
Min Temperature 44 °F 40 °F 30 °F (2012)
Degree Days  
Heating Degree Days 6    
Growing Degree Days 10 (Base 50)    
Moisture  
Dew Point 50 °F    
Average Humidity 78    
Maximum Humidity 100    
Minimum Humidity 48    
Precipitation  
Precipitation 0.00 in - - ()
Sea Level Pressure  
Sea Level Pressure 30.12 in    
Wind  
Wind Speed 1 mph ()    
Max Wind Speed 8 mph    
Max Gust Speed -    
Visibility 9.6 miles    
Events      
Averages and records for this station are not official NWS values.
T = Trace of Precipitation, MM = Missing Value Source: Averaged Metar Reports

Daily Weather History Graph

Daily Weather History Graph

Search for Another Location

Airport or City:

Astronomy

Oct. 11, 2019 Rise Set
Actual Time 7:27 AM EDT 6:47 PM EDT
Civil Twilight 7:00 AM EDT 7:15 PM EDT
Nautical Twilight 6:28 AM EDT 7:46 PM EDT
Astronomical Twilight 5:57 AM EDT 8:17 PM EDT
Moon 6:16 PM EDT (10/11) 5:06 AM EDT (10/11)
Length of Visible Light 12h 14m
Length of Day
11h 20m
Waxing Gibbous, 96% of the Moon is Illuminated
Oct 11
Waxing Gibbous
Oct 13
Full
Oct 21
Last Quarter
Oct 27
New
Nov 4
First Quarter

Hourly Weather History & Observations

Time (EDT) Temp. Dew Point Humidity Pressure Visibility Wind Dir Wind Speed Gust Speed Precip Events Conditions
12:56 AM 48.9 °F 48.0 °F 97% 30.19 in 10.0 mi Calm Calm - N/A   Clear
1:56 AM 48.0 °F 48.0 °F 100% 30.19 in 8.0 mi Calm Calm - N/A   Clear
2:56 AM 46.9 °F 46.9 °F 100% 30.18 in 3.0 mi Calm Calm - N/A   Clear
3:56 AM 46.0 °F 46.0 °F 100% 30.17 in 10.0 mi Calm Calm - N/A   Clear
4:56 AM 46.0 °F 45.0 °F 96% 30.17 in 10.0 mi Calm Calm - N/A   Clear
5:56 AM 44.1 °F 44.1 °F 100% 30.18 in 10.0 mi Calm Calm - N/A   Clear
6:05 AM 44.6 °F 42.8 °F 93% 30.18 in 10.0 mi Calm Calm - N/A   Scattered Clouds
6:24 AM 44.6 °F 42.8 °F 93% 30.18 in 10.0 mi Calm Calm - N/A   Mostly Cloudy
6:36 AM 44.6 °F 44.6 °F 100% 30.18 in 10.0 mi Calm Calm - N/A   Scattered Clouds
6:56 AM 44.1 °F 43.0 °F 96% 30.18 in 10.0 mi Calm Calm - N/A   Clear
7:56 AM 45.0 °F 44.1 °F 97% 30.19 in 9.0 mi Calm Calm - N/A   Clear
8:56 AM 50.0 °F 48.0 °F 93% 30.20 in 10.0 mi Calm Calm - N/A   Clear
9:56 AM 60.1 °F 53.1 °F 78% 30.19 in 10.0 mi Calm Calm - N/A   Clear
10:56 AM 66.0 °F 54.0 °F 65% 30.19 in 10.0 mi Variable 6.9 mph - N/A   Clear
11:56 AM 69.1 °F 54.0 °F 58% 30.17 in 10.0 mi ESE 8.1 mph - N/A   Clear
12:56 PM 73.0 °F 55.0 °F 53% 30.14 in 10.0 mi East 8.1 mph - N/A   Clear
1:56 PM 73.0 °F 54.0 °F 51% 30.11 in 10.0 mi Variable 3.5 mph - N/A   Clear
2:56 PM 73.0 °F 55.0 °F 53% 30.09 in 10.0 mi Variable 4.6 mph - N/A   Clear
3:56 PM 75.9 °F 55.0 °F 48% 30.07 in 10.0 mi East 6.9 mph - N/A   Clear
4:56 PM 75.9 °F 55.0 °F 48% 30.06 in 10.0 mi ESE 6.9 mph - N/A   Clear
5:56 PM 73.0 °F 55.0 °F 53% 30.04 in 10.0 mi ESE 5.8 mph - N/A   Clear
6:56 PM 64.9 °F 55.9 °F 73% 30.04 in 10.0 mi Calm Calm - N/A   Clear
7:56 PM 62.1 °F 55.9 °F 80% 30.04 in 10.0 mi Calm Calm - N/A   Clear
8:56 PM 59.0 °F 55.0 °F 87% 30.03 in 10.0 mi Calm Calm - N/A   Clear
9:56 PM 61.0 °F 55.0 °F 81% 30.02 in 10.0 mi Calm Calm - N/A   Overcast
10:56 PM 64.9 °F 51.1 °F 61% 30.00 in 10.0 mi Calm Calm - N/A   Overcast
11:56 PM 64.0 °F 52.0 °F 65% 29.98 in 10.0 mi Calm Calm - N/A   Mostly Cloudy